Location: Beadle
(51.4667°N, 109.0000°W)
Time: 04:06:55
(UTC+00:00)

Altair - Pass Details

Date: 04 June 2022
Orbit: 1501 x 1682 km, 47.2° (Epoch: 30 June)

Event Time Altitude Azimuth Distance (km) Brightness Sun altitude
Rises 03:33:28 0° 287° (WNW) 4,909 11.6 -1.7°
Reaches altitude 10° 03:36:57 10° 279° (W) 3,933 10.7 -2.1°
Maximum altitude 03:45:40 35° 219° (SW) 2,497 8.6 -3.1°
Drops below altitude 10° 03:54:23 10° 159° (SSE) 3,924 9.1 -4.1°
Enters shadow 03:56:55 - 153° (SSE) 4,621 9.4 -4.4°
Sets 03:57:53 0° 151° (SSE) 4,896 - -4.5°
